Tracking 23440 objects as of 13-Jun-2021
HD Live streaming from Space Station
objects crossing your sky now

SL-12 R/B(2)

Track SL-12 R/B(2) now!


NORAD ID: 21536
Int'l Code: 1991-046D
Perigee: 35,555.6 km
Apogee: 35,664.6 km
Inclination: 14.3 °
Period: 1,426.7 minutes
Semi major axis: 41981 km
RCS: 2.304 m2 (large)
Launch date: July 1, 1991
Source: Commonwealth of Independent States (former USSR) (CIS)
Launch site: TYURATAM MISSILE AND SPACE COMPLEX (TTMTR)

Note: This is a ROCKET BODY
aabbcc
Your satellite tracking list
Your tracking list is empty




NASA's NSSDC Master Catalog

Two Line Element Set (TLE):
1 21536U 91046D   21163.41467987 -.00000323  00000-0  00000-0 0  9995
2 21536  14.3279 352.9414 0012988 182.7273 351.5538  1.00930478105324
Source of the keplerian elements: AFSPC